QPS-SAR-8 AMATERU-IV

导读

QPS-SAR-8 AMATERU-IV是日本于2024年8月16日发射的合成孔径雷达卫星,隶属于QPS-SAR卫星星座,由日本QPS公司主导研发。该卫星延续了星座技术路线,依托合成孔径雷达全天时、全天候观测能力,可服务于灾害监测、地形测绘、资源勘探等领域,进一步提升日本商业遥感卫星的服务覆盖能力与数据更新效率。

基本信息
目录编号:
60542
目录名称:
QPS-SAR-8 AMATERU-IV
国际标识:
2024-149CC
轨道中心:
EARTH
卫星名称:
QPS-SAR-8 AMATERU-IV
卫星全名:
QPS-SAR-8 AMATERU-IV
卫星状态:
在轨 (已飞行750 天)
发射日期:
2024-08-16 UTC
国别 :
日本 (JP)
星等 :
--
轨道信息
数据来源 国际轨道数据
星历时间: 2026-09-05T12:54:30+0800
16小时前
查看轨道信息
半长轴: 6930.226km
偏心率: 0.000324
轨道倾角: 97.662°
近地点辐角 166.780°
升交点赤经 326.700°
平近点角 193.351°
近地点: 549.843km
远地点: 554.335km
周期: 95.693分钟
每日圈数: 15.0481
详细信息
使用方式:
暂无
2D轨道图
3D轨道图
轨道高度分析图
轨道倾角分析图
轨道综合分析图
查看轨道综合分析图
交会数据列表
事件ID 空间交会对象 最接近时刻(TCA) 交会距离 交会风险概率(CRP) 交会风险指数(CRI) 操作
CDM_260902-090303-749606-054224
2026-09-02T
09:03:30+0000
0.483 km
远距离
2.244683E-4 高风险 0.82
CDM_260905-204204-546006-054225
2026-09-05T
20:42:56+0000
0.587 km
远距离
1.23939E-4 高风险 0.77
CDM_260905-181904-546006-054225
2026-09-05T
18:19:16+0000
2.703 km
极远距离
1.388594E-6 低风险 0.38